EUTELSAT HOTBIRD 13F

Last updated on Thu Jul 03 2025 00:02:49 GMT+0000 (Coordinated Universal Time)

1 54048U 22134A 25183.56918470 .00000094 00000+0 00000+0 0 9993 2 54048 0.0662 289.2941 0002125 72.0890 137.3718 1.00270273 9874
UTC large
Height (km)
Speed (km/s)
/
Latitude / Longitude
Inclination (degrees)
Orbital Period (minutes)
Azimuth
Elevation
Range (km)
Doppler Factor

Next 0 passes for location: London (51.5072 / 0.1276)

Sorry there are no passes over London.